When you browse on this site, cookies collect data to enhance your experience and personalize the content and advertising you see.
Visit our Privacy Policy to learn more. By continuing to use the site, you agree to this use of cookies and data.
  • In Austria
  • List of Countries
  • For 7 days
  • Water Temperature
  • Weather Map
  • News
  • Weather Widgets
  • user-avatar
    Login

    Hourly Weather Flerovo

    Today, 14 October, Monday

    Time Temperature Precipitation Wind Pressure Humidity
    00:00 +13°C° 0 mm 2 mps 752 mmHg 86%
    01:00 +13°C° 0 mm 2 mps 752 mmHg 87%
    02:00 +13°C° 0 mm 2 mps 752 mmHg 89%
    03:00 +12°C° 0 mm 2 mps 752 mmHg 90%
    04:00 +12°C° 0 mm 2 mps 752 mmHg 91%
    05:00 +11°C° 0 mm 3 mps 752 mmHg 91%
    06:00 +11°C° 0 mm 3 mps 752 mmHg 89%
    07:00 +12°C° 0 mm 3 mps 752 mmHg 87%
    08:00 +12°C° 0 mm 4 mps 752 mmHg 82%
    09:00 +14°C° 0 mm 4 mps 752 mmHg 76%
    10:00 +17°C° 0 mm 4 mps 751 mmHg 69%
    11:00 +18°C° 0 mm 4 mps 751 mmHg 62%
    12:00 +19°C° 0 mm 5 mps 751 mmHg 59%
    13:00 +20°C° 0 mm 5 mps 751 mmHg 57%
    14:00 +22°C° 0 mm 5 mps 751 mmHg 55%
    15:00 +20°C° 0 mm 5 mps 750 mmHg 59%
    16:00 +19°C° 0 mm 4 mps 750 mmHg 64%
    17:00 +18°C° 0 mm 4 mps 750 mmHg 69%
    18:00 +17°C° 0 mm 3 mps 750 mmHg 72%
    19:00 +16°C° 0 mm 3 mps 751 mmHg 76%
    20:00 +14°C° 0 mm 3 mps 751 mmHg 79%
    21:00 +14°C° 0 mm 3 mps 751 mmHg 82%
    22:00 +14°C° 0 mm 2 mps 751 mmHg 84%
    23:00 +14°C° 0 mm 2 mps 751 mmHg 87%

    Tomorrow, 15 October, Tuesday

    Time Temperature Precipitation Wind Pressure Humidity
    00:00 +14°C° 0 mm 2 mps 751 mmHg 88%
    01:00 +14°C° 0 mm 2 mps 751 mmHg 89%
    02:00 +13°C° 0 mm 2 mps 752 mmHg 90%
    03:00 +13°C° 0 mm 1 mps 752 mmHg 91%
    04:00 +13°C° 0 mm 1 mps 752 mmHg 91%
    05:00 +13°C° 0 mm 1 mps 752 mmHg 92%
    06:00 +13°C° 0 mm 1 mps 752 mmHg 91%
    07:00 +13°C° 0 mm 1 mps 753 mmHg 90%
    08:00 +14°C° 0 mm 1 mps 753 mmHg 89%
    09:00 +16°C° 0 mm 1 mps 753 mmHg 83%
    10:00 +17°C° 0 mm 2 mps 753 mmHg 76%
    11:00 +19°C° 0 mm 2 mps 752 mmHg 70%
    12:00 +20°C° 0 mm 2 mps 752 mmHg 67%
    13:00 +21°C° 0 mm 2 mps 752 mmHg 64%
    14:00 +23°C° 0 mm 2 mps 752 mmHg 61%
    15:00 +20°C° 0 mm 3 mps 752 mmHg 66%
    16:00 +19°C° 0 mm 3 mps 751 mmHg 72%
    17:00 +18°C° 0 mm 3 mps 751 mmHg 77%
    18:00 +17°C° 0 mm 3 mps 751 mmHg 79%
    19:00 +17°C° 0 mm 3 mps 751 mmHg 81%
    20:00 +16°C° 0 mm 3 mps 751 mmHg 83%
    21:00 +16°C° 0 mm 3 mps 751 mmHg 82%
    22:00 +15°C° 0 mm 4 mps 751 mmHg 80%
    23:00 +14°C° 0 mm 4 mps 751 mmHg 79%

    Day after tomorrow, 16 October, Wednesday

    Time Temperature Precipitation Wind Pressure Humidity
    00:00 +14°C° 0 mm 4 mps 751 mmHg 78%
    01:00 +13°C° 0 mm 4 mps 751 mmHg 77%
    02:00 +13°C° 0 mm 4 mps 751 mmHg 76%
    03:00 +12°C° 0 mm 4 mps 751 mmHg 76%
    04:00 +12°C° 0 mm 4 mps 750 mmHg 77%
    05:00 +12°C° 0 mm 4 mps 750 mmHg 77%
    06:00 +12°C° 0 mm 4 mps 750 mmHg 75%
    07:00 +12°C° 0 mm 4 mps 750 mmHg 74%
    08:00 +13°C° 0 mm 5 mps 750 mmHg 73%
    09:00 +14°C° 0 mm 5 mps 750 mmHg 67%
    10:00 +16°C° 0 mm 5 mps 750 mmHg 61%
    11:00 +19°C° 0 mm 6 mps 750 mmHg 54%
    12:00 +20°C° 0 mm 5 mps 749 mmHg 54%
    13:00 +20°C° 0 mm 5 mps 749 mmHg 53%
    14:00 +21°C° 0 mm 5 mps 749 mmHg 52%
    15:00 +20°C° 0 mm 4 mps 749 mmHg 57%
    16:00 +19°C° 0 mm 4 mps 749 mmHg 63%
    17:00 +18°C° 0 mm 3 mps 748 mmHg 69%
    18:00 +17°C° 0 mm 3 mps 749 mmHg 72%
    19:00 +16°C° 0 mm 3 mps 749 mmHg 76%
    20:00 +15°C° 0 mm 2 mps 749 mmHg 80%
    21:00 +15°C° 0 mm 2 mps 749 mmHg 83%
    22:00 +14°C° 0 mm 2 mps 750 mmHg 86%
    23:00 +14°C° 0 mm 2 mps 750 mmHg 89%

    17 October, Thursday

    Time Temperature Precipitation Wind Pressure Humidity
    00:00 +14°C° 0 mm 2 mps 750 mmHg 89%
    01:00 +14°C° 0 mm 2 mps 750 mmHg 89%
    02:00 +14°C° 0 mm 2 mps 750 mmHg 89%
    03:00 +14°C° 0 mm 2 mps 750 mmHg 87%
    04:00 +14°C° 0 mm 2 mps 750 mmHg 85%
    05:00 +14°C° 0 mm 2 mps 750 mmHg 84%
    06:00 +14°C° 0 mm 2 mps 750 mmHg 82%
    07:00 +14°C° 0 mm 2 mps 750 mmHg 81%
    08:00 +13°C° 0 mm 2 mps 750 mmHg 79%
    09:00 +14°C° 0 mm 3 mps 750 mmHg 72%
    10:00 +16°C° 0 mm 3 mps 750 mmHg 65%
    11:00 +18°C° 0 mm 4 mps 750 mmHg 58%
    12:00 +17°C° 0 mm 5 mps 750 mmHg 54%
    13:00 +19°C° 0 mm 5 mps 750 mmHg 51%
    14:00 +19°C° 0 mm 5 mps 750 mmHg 47%
    15:00 +18°C° 0 mm 4 mps 750 mmHg 53%
    16:00 +15°C° 0 mm 4 mps 750 mmHg 59%
    17:00 +14°C° 0 mm 3 mps 750 mmHg 66%
    18:00 +14°C° 0 mm 3 mps 750 mmHg 69%
    19:00 +13°C° 0 mm 3 mps 751 mmHg 73%
    20:00 +12°C° 0 mm 3 mps 751 mmHg 76%
    21:00 +12°C° 0 mm 3 mps 751 mmHg 79%
    22:00 +12°C° 0 mm 2 mps 751 mmHg 82%
    23:00 +12°C° 0 mm 2 mps 752 mmHg 85%

    18 October, Friday

    Time Temperature Precipitation Wind Pressure Humidity
    00:00 +10°C° 0 mm 2 mps 752 mmHg 87%
    01:00 +10°C° 0 mm 2 mps 752 mmHg 90%
    02:00 +10°C° 0 mm 2 mps 752 mmHg 92%
    03:00 +11°C° 0 mm 1 mps 752 mmHg 92%
    04:00 +11°C° 0 mm 1 mps 752 mmHg 93%
    05:00 +10°C° 0 mm 1 mps 753 mmHg 94%
    06:00 +11°C° 0 mm 1 mps 753 mmHg 93%
    07:00 +11°C° 0 mm 1 mps 753 mmHg 92%
    08:00 +11°C° 0 mm 1 mps 753 mmHg 90%
    09:00 +13°C° 0 mm 1 mps 753 mmHg 83%
    10:00 +14°C° 0 mm 1 mps 754 mmHg 77%
    11:00 +16°C° 0 mm 1 mps 754 mmHg 70%
    12:00 +18°C° 0 mm 1 mps 754 mmHg 67%
    13:00 +18°C° 0 mm 1 mps 753 mmHg 65%
    14:00 +19°C° 0 mm 1 mps 753 mmHg 62%
    15:00 +18°C° 0 mm 1 mps 753 mmHg 67%
    16:00 +15°C° 0 mm 0 mps 753 mmHg 72%
    17:00 +13°C° 0 mm 0 mps 753 mmHg 77%
    18:00 +14°C° 0 mm 1 mps 753 mmHg 80%
    19:00 +13°C° 0 mm 1 mps 754 mmHg 82%
    20:00 +13°C° 0 mm 1 mps 754 mmHg 85%
    21:00 +12°C° 0 mm 1 mps 754 mmHg 86%
    22:00 +12°C° 0 mm 2 mps 754 mmHg 88%
    23:00 +12°C° 0 mm 2 mps 754 mmHg 89%

    19 October, Saturday

    Time Temperature Precipitation Wind Pressure Humidity
    00:00 +12°C° 0 mm 2 mps 754 mmHg 89%
    01:00 +12°C° 0 mm 2 mps 754 mmHg 90%
    02:00 +10°C° 0 mm 2 mps 754 mmHg 90%
    03:00 +10°C° 0 mm 2 mps 754 mmHg 90%
    04:00 +10°C° 0 mm 2 mps 755 mmHg 91%
    05:00 +10°C° 0 mm 2 mps 755 mmHg 91%
    06:00 +10°C° 0 mm 2 mps 755 mmHg 90%
    07:00 +10°C° 0 mm 2 mps 755 mmHg 90%
    08:00 +12°C° 0 mm 2 mps 755 mmHg 89%
    09:00 +12°C° 0 mm 3 mps 755 mmHg 82%
    10:00 +14°C° 0 mm 3 mps 755 mmHg 76%
    11:00 +16°C° 0 mm 3 mps 755 mmHg 69%
    12:00 +17°C° 0 mm 3 mps 755 mmHg 66%
    13:00 +18°C° 0 mm 3 mps 755 mmHg 63%
    14:00 +19°C° 0 mm 4 mps 755 mmHg 60%
    15:00 +18°C° 0 mm 3 mps 754 mmHg 65%
    16:00 +17°C° 0 mm 3 mps 754 mmHg 70%
    17:00 +14°C° 0 mm 3 mps 754 mmHg 74%
    18:00 +14°C° 0 mm 3 mps 754 mmHg 75%
    19:00 +13°C° 0 mm 4 mps 754 mmHg 76%
    20:00 +13°C° 0 mm 4 mps 755 mmHg 77%
    21:00 +12°C° 0 mm 4 mps 755 mmHg 77%
    22:00 +12°C° 0 mm 4 mps 755 mmHg 77%
    23:00 +12°C° 0 mm 4 mps 755 mmHg 77%
    Show more